Clarksville, TN

5:28 PM CST on February 22, 2018 (GMT -0600)
Outlaw

Weather History for KCKV - March, 2014

Change the Weather History Date:

Saturday, March 1, 2014

  Actual Average Record
Temperature  
Mean Temperature 50 °F 44 °F  
Max Temperature 58 °F 55 °F 80 °F (1972)
Min Temperature 42 °F 33 °F 14 °F (1980)
Degree Days  
Heating Degree Days 15    
Month to date heating degree days 15  
Since 1 July heating degree days 3497  
Cooling Degree Days 0    
Month to date cooling degree days 0  
Year to date cooling degree days  
Moisture  
Dew Point 37 °F    
Average Humidity 59    
Maximum Humidity 70    
Minimum Humidity 47    
Precipitation  
Precipitation T in 0.11 in 1.18 in (1950)
Month to date precipitation T 0.11  
Year to date precipitation 7.59  
Sea Level Pressure  
Sea Level Pressure 30.12 in    
Wind  
Wind Speed 4 mph (South)    
Max Wind Speed 10 mph    
Max Gust Speed 25 mph    
Visibility 10 miles    
Events      
T = Trace of Precipitation, MM = Missing Value Source: NWS Daily Summary

Daily Weather History Graph

Daily Weather History Graph

Search for Another Location

Airport or City:

Trip Planner

Search our weather history database for the weather conditions in past years. The results will help you decide how hot, cold, wet, or windy it might be!

Date:

Astronomy

Mar. 01, 2014 Rise Set
Actual Time 6:20 AM CST 5:44 PM CST
Civil Twilight 5:54 AM CST 6:10 PM CST
Nautical Twilight 5:24 AM CST 6:40 PM CST
Astronomical Twilight 4:54 AM CST 7:10 PM CST
Moon 6:15 AM CST (3/1) 6:28 PM CST (3/1)
Length of Visible Light 12h 15m
Length of Day
11h 23m
New Moon, 0% of the Moon is Illuminated
Mar 1
New Moon
Mar 8
First Quarter
Mar 16
Full
Mar 23
Last Quarter
Mar 30
New

Hourly Weather History & Observations

Time (CST) Temp. Windchill Dew Point Humidity Pressure Visibility Wind Dir Wind Speed Gust Speed Precip Events Conditions
12:52 AM 45.0 °F 40.6 °F 28.0 °F 52% 30.10 in 10.0 mi South 8.1 mph - N/A   Overcast
1:52 AM 44.1 °F 41.5 °F 32.0 °F 63% 30.10 in 10.0 mi SSW 4.6 mph - 0.00 in   Overcast
2:52 AM 42.1 °F 40.2 °F 32.0 °F 67% 30.09 in 10.0 mi SE 3.5 mph - N/A   Overcast
3:52 AM 43.0 °F 41.3 °F 33.1 °F 68% 30.09 in 10.0 mi SE 3.5 mph - N/A   Overcast
4:52 AM 43.0 °F - 34.0 °F 71% 30.10 in 10.0 mi Calm Calm - N/A   Overcast
5:52 AM 43.0 °F - 34.0 °F 71% 30.12 in 10.0 mi Calm Calm - N/A   Overcast
6:52 AM 43.0 °F 41.3 °F 33.1 °F 68% 30.14 in 10.0 mi SSE 3.5 mph - N/A   Overcast
7:52 AM 45.0 °F 43.5 °F 33.1 °F 63% 30.17 in 10.0 mi SE 3.5 mph - N/A   Overcast
8:52 AM 48.0 °F - 33.1 °F 56% 30.15 in 10.0 mi SSE 4.6 mph - N/A   Overcast
9:52 AM 51.1 °F - 35.1 °F 54% 30.17 in 10.0 mi SW 6.9 mph - N/A   Overcast
10:52 AM 54.0 °F - 36.0 °F 51% 30.16 in 10.0 mi SSW 5.8 mph - N/A   Overcast
11:52 AM 55.9 °F - 37.0 °F 49% 30.14 in 10.0 mi Variable 3.5 mph - N/A   Overcast
12:52 PM 57.0 °F - 37.9 °F 49% 30.13 in 10.0 mi SSW 6.9 mph - N/A   Overcast
1:52 PM 57.0 °F - 39.0 °F 51% 30.11 in 10.0 mi Calm Calm - N/A   Overcast
2:52 PM 57.9 °F - 39.9 °F 51% 30.11 in 10.0 mi SW 5.8 mph - N/A   Overcast
3:52 PM 57.9 °F - 41.0 °F 53% 30.10 in 10.0 mi SW 5.8 mph - N/A   Overcast
4:52 PM 57.9 °F - 41.0 °F 53% 30.11 in 10.0 mi South 3.5 mph - N/A   Overcast
5:52 PM 55.9 °F - 41.0 °F 57% 30.12 in 10.0 mi Calm Calm - N/A   Overcast
6:52 PM 54.0 °F - 41.0 °F 62% 30.12 in 10.0 mi SE 4.6 mph - N/A   Overcast
7:52 PM 55.9 °F - 42.1 °F 60% 30.11 in 10.0 mi SE 4.6 mph - N/A   Overcast
8:52 PM 55.0 °F - 43.0 °F 64% 30.12 in 10.0 mi SSE 3.5 mph - N/A   Overcast
9:52 PM 55.0 °F - 43.0 °F 64% 30.12 in 10.0 mi SSE 3.5 mph - N/A   Overcast
10:52 PM 55.0 °F - 43.0 °F 64% 30.09 in 10.0 mi SSE 4.6 mph - N/A   Overcast
11:52 PM 55.0 °F - 43.0 °F 64% 30.07 in 10.0 mi SSE 4.6 mph - N/A   Overcast